When you browse on this site, cookies collect data to enhance your experience and personalize the content and advertising you see.
Visit our Privacy Policy to learn more. By continuing to use the site, you agree to this use of cookies and data.
  • In Österreich
  • Länderverzeichnis
  • Für 7 Tage
  • Wassertemperatur
  • Satellitenkarten
  • Wetterkarte
  • News
  • Widgets
  • user-avatar
    Anmelden

    Stündliche Wetter Nemirov

    Heute, 20 April, Samstag

    Zeit Temperatur Niederschläge Wind Luftdruck Luftfeuchtigkeit
    00:00 +6°C° 0 mm 1 m/S 747 mmHg 71%
    01:00 +6°C° 0 mm 1 m/S 747 mmHg 71%
    02:00 +6°C° 0 mm 1 m/S 747 mmHg 73%
    03:00 +5°C° 0 mm 1 m/S 747 mmHg 74%
    04:00 +5°C° 0 mm 1 m/S 747 mmHg 75%
    05:00 +4°C° 0 mm 2 m/S 747 mmHg 76%
    06:00 +6°C° 0 mm 2 m/S 747 mmHg 71%
    07:00 +7°C° 0 mm 2 m/S 747 mmHg 66%
    08:00 +9°C° 0 mm 2 m/S 747 mmHg 59%
    09:00 +10°C° 0 mm 2 m/S 747 mmHg 53%
    10:00 +12°C° 0 mm 2 m/S 747 mmHg 46%
    11:00 +13°C° 0 mm 2 m/S 747 mmHg 40%
    12:00 +13°C° 0 mm 2 m/S 747 mmHg 40%
    13:00 +13°C° 0 mm 2 m/S 746 mmHg 41%
    14:00 +13°C° 0 mm 2 m/S 746 mmHg 45%
    15:00 +13°C° 0 mm 2 m/S 746 mmHg 45%
    16:00 +13°C° 0 mm 2 m/S 746 mmHg 46%
    17:00 +13°C° 0 mm 2 m/S 745 mmHg 46%
    18:00 +12°C° 0 mm 1 m/S 745 mmHg 50%
    19:00 +11°C° 0 mm 1 m/S 745 mmHg 53%
    20:00 +10°C° 0 mm 1 m/S 745 mmHg 56%
    21:00 +10°C° 0 mm 1 m/S 745 mmHg 57%
    22:00 +9°C° 0 mm 1 m/S 744 mmHg 59%
    23:00 +8°C° 0 mm 2 m/S 744 mmHg 61%

    Morgen, 21 April, Sonntag

    Zeit Temperatur Niederschläge Wind Luftdruck Luftfeuchtigkeit
    00:00 +7°C° 0 mm 2 m/S 744 mmHg 63%
    01:00 +7°C° 0 mm 2 m/S 744 mmHg 66%
    02:00 +7°C° 0 mm 2 m/S 744 mmHg 68%
    03:00 +6°C° 0 mm 2 m/S 743 mmHg 72%
    04:00 +6°C° 0 mm 2 m/S 743 mmHg 76%
    05:00 +6°C° 0 mm 2 m/S 743 mmHg 80%
    06:00 +7°C° 0 mm 2 m/S 743 mmHg 76%
    07:00 +8°C° 0 mm 3 m/S 743 mmHg 72%
    08:00 +9°C° 0 mm 3 m/S 743 mmHg 68%
    09:00 +10°C° 0 mm 4 m/S 743 mmHg 62%
    10:00 +11°C° 0 mm 4 m/S 743 mmHg 56%
    11:00 +12°C° 0 mm 5 m/S 743 mmHg 50%
    12:00 +13°C° 0 mm 5 m/S 743 mmHg 49%
    13:00 +13°C° 0 mm 5 m/S 743 mmHg 48%
    14:00 +13°C° 0 mm 5 m/S 742 mmHg 48%
    15:00 +13°C° 0 mm 5 m/S 742 mmHg 49%
    16:00 +13°C° 0 mm 4 m/S 742 mmHg 50%
    17:00 +12°C° 0 mm 4 m/S 742 mmHg 52%
    18:00 +11°C° 0 mm 4 m/S 742 mmHg 57%
    19:00 +10°C° 0 mm 4 m/S 742 mmHg 62%
    20:00 +9°C° 0 mm 3 m/S 742 mmHg 67%
    21:00 +8°C° 0 mm 3 m/S 742 mmHg 67%
    22:00 +8°C° 0 mm 3 m/S 743 mmHg 68%
    23:00 +7°C° 0 mm 3 m/S 743 mmHg 68%

    übermorgen, 22 April, Montag

    Zeit Temperatur Niederschläge Wind Luftdruck Luftfeuchtigkeit
    00:00 +7°C° 0 mm 3 m/S 743 mmHg 68%
    01:00 +7°C° 0 mm 3 m/S 743 mmHg 68%
    02:00 +7°C° 0 mm 3 m/S 743 mmHg 67%
    03:00 +5°C° 0 mm 3 m/S 743 mmHg 68%
    04:00 +4°C° 0 mm 3 m/S 744 mmHg 69%
    05:00 +4°C° 0 mm 3 m/S 744 mmHg 70%
    06:00 +7°C° 0 mm 3 m/S 744 mmHg 65%
    07:00 +7°C° 0 mm 4 m/S 745 mmHg 59%
    08:00 +10°C° 0 mm 4 m/S 745 mmHg 53%
    09:00 +10°C° 0 mm 5 m/S 745 mmHg 49%
    10:00 +12°C° 0 mm 5 m/S 746 mmHg 44%
    11:00 +13°C° 0 mm 6 m/S 746 mmHg 40%
    12:00 +13°C° 0 mm 6 m/S 746 mmHg 40%
    13:00 +13°C° 0 mm 5 m/S 746 mmHg 41%
    14:00 +13°C° 0 mm 5 m/S 746 mmHg 42%
    15:00 +13°C° 0 mm 5 m/S 746 mmHg 43%
    16:00 +13°C° 0 mm 5 m/S 746 mmHg 44%
    17:00 +13°C° 0 mm 4 m/S 746 mmHg 46%
    18:00 +11°C° 0 mm 4 m/S 746 mmHg 51%
    19:00 +10°C° 0 mm 3 m/S 746 mmHg 56%
    20:00 +8°C° 0 mm 3 m/S 746 mmHg 61%
    21:00 +8°C° 0 mm 3 m/S 747 mmHg 63%
    22:00 +7°C° 0 mm 3 m/S 747 mmHg 64%
    23:00 +7°C° 0 mm 3 m/S 747 mmHg 66%

    23 April, Dienstag

    Zeit Temperatur Niederschläge Wind Luftdruck Luftfeuchtigkeit
    00:00 +5°C° 0 mm 3 m/S 747 mmHg 67%
    01:00 +5°C° 0 mm 3 m/S 747 mmHg 67%
    02:00 +5°C° 0 mm 3 m/S 747 mmHg 68%
    03:00 +4°C° 0 mm 3 m/S 747 mmHg 68%
    04:00 +4°C° 0 mm 3 m/S 747 mmHg 69%
    05:00 +4°C° 0 mm 3 m/S 747 mmHg 69%
    06:00 +7°C° 0 mm 3 m/S 748 mmHg 64%
    07:00 +8°C° 0 mm 4 m/S 748 mmHg 59%
    08:00 +11°C° 0 mm 4 m/S 748 mmHg 54%
    09:00 +12°C° 0 mm 5 m/S 748 mmHg 50%
    10:00 +13°C° 0 mm 5 m/S 748 mmHg 45%
    11:00 +14°C° 0 mm 6 m/S 748 mmHg 41%
    12:00 +15°C° 0 mm 6 m/S 748 mmHg 41%
    13:00 +15°C° 0 mm 6 m/S 748 mmHg 40%
    14:00 +15°C° 0 mm 6 m/S 748 mmHg 40%
    15:00 +15°C° 0 mm 5 m/S 748 mmHg 42%
    16:00 +15°C° 0 mm 5 m/S 748 mmHg 44%
    17:00 +14°C° 0 mm 4 m/S 747 mmHg 46%
    18:00 +13°C° 0 mm 4 m/S 747 mmHg 49%
    19:00 +12°C° 0 mm 4 m/S 747 mmHg 53%
    20:00 +11°C° 0 mm 4 m/S 747 mmHg 56%
    21:00 +10°C° 0 mm 4 m/S 747 mmHg 59%
    22:00 +8°C° 0 mm 4 m/S 748 mmHg 62%
    23:00 +8°C° 0 mm 3 m/S 748 mmHg 66%

    24 April, Mittwoch

    Zeit Temperatur Niederschläge Wind Luftdruck Luftfeuchtigkeit
    00:00 +8°C° 0 mm 3 m/S 748 mmHg 67%
    01:00 +7°C° 0 mm 3 m/S 748 mmHg 68%
    02:00 +5°C° 0 mm 3 m/S 748 mmHg 69%
    03:00 +5°C° 0 mm 3 m/S 748 mmHg 69%
    04:00 +5°C° 0 mm 3 m/S 748 mmHg 70%
    05:00 +5°C° 0 mm 3 m/S 748 mmHg 70%
    06:00 +6°C° 0 mm 4 m/S 748 mmHg 63%
    07:00 +8°C° 0 mm 5 m/S 748 mmHg 57%
    08:00 +10°C° 0 mm 6 m/S 749 mmHg 51%
    09:00 +11°C° 0 mm 6 m/S 749 mmHg 49%
    10:00 +14°C° 0 mm 6 m/S 749 mmHg 46%
    11:00 +15°C° 0 mm 7 m/S 749 mmHg 43%
    12:00 +15°C° 0 mm 7 m/S 749 mmHg 43%
    13:00 +16°C° 0 mm 6 m/S 748 mmHg 42%
    14:00 +16°C° 0 mm 6 m/S 748 mmHg 42%
    15:00 +16°C° 0 mm 6 m/S 748 mmHg 43%
    16:00 +16°C° 0 mm 6 m/S 748 mmHg 44%
    17:00 +16°C° 0 mm 5 m/S 747 mmHg 46%
    18:00 +14°C° 0 mm 5 m/S 747 mmHg 50%
    19:00 +13°C° 0 mm 4 m/S 747 mmHg 55%
    20:00 +11°C° 0 mm 3 m/S 747 mmHg 59%
    21:00 +10°C° 0 mm 4 m/S 748 mmHg 58%
    22:00 +10°C° 0 mm 4 m/S 748 mmHg 58%
    23:00 +8°C° 0 mm 4 m/S 748 mmHg 57%

    25 April, Donnerstag

    Zeit Temperatur Niederschläge Wind Luftdruck Luftfeuchtigkeit
    00:00 +8°C° 0 mm 4 m/S 748 mmHg 59%
    01:00 +8°C° 0 mm 3 m/S 748 mmHg 61%
    02:00 +7°C° 0 mm 3 m/S 748 mmHg 63%
    03:00 +7°C° 0 mm 3 m/S 748 mmHg 65%
    04:00 +7°C° 0 mm 3 m/S 748 mmHg 67%
    05:00 +5°C° 0 mm 3 m/S 748 mmHg 68%
    06:00 +7°C° 0 mm 4 m/S 748 mmHg 64%
    07:00 +9°C° 0 mm 5 m/S 748 mmHg 59%
    08:00 +10°C° 0 mm 5 m/S 748 mmHg 54%
    09:00 +13°C° 0 mm 6 m/S 748 mmHg 50%
    10:00 +14°C° 0 mm 6 m/S 748 mmHg 45%
    11:00 +16°C° 0 mm 6 m/S 748 mmHg 41%
    12:00 +16°C° 0 mm 6 m/S 748 mmHg 41%
    13:00 +17°C° 0 mm 6 m/S 747 mmHg 41%
    14:00 +19°C° 0 mm 6 m/S 747 mmHg 41%
    15:00 +19°C° 0 mm 6 m/S 747 mmHg 42%
    16:00 +17°C° 0 mm 5 m/S 746 mmHg 44%
    17:00 +17°C° 0 mm 5 m/S 746 mmHg 46%
    18:00 +16°C° 0 mm 5 m/S 746 mmHg 51%
    19:00 +14°C° 0 mm 4 m/S 745 mmHg 55%
    20:00 +12°C° 0 mm 4 m/S 745 mmHg 60%
    21:00 +12°C° 0 mm 4 m/S 745 mmHg 61%
    22:00 +11°C° 0 mm 4 m/S 745 mmHg 63%
    23:00 +10°C° 0 mm 4 m/S 745 mmHg 64%
    Mehr zeigen